FDX122 GVAC-GOOY

Flight info

Callsign FDX122
Flight time 0h 57m
Altitude 33000
Route IRPOT1A POLMO DCT LUMPO UR976 ANITI
Aircraft B738/M-SDE2E3FGHIRWXY/LB1

Departure

Time 2026-04-21 07:37
Airport Amílcar Cabral International Airport (GVAC)

Arrival

Time 2026-04-21 08:34
Airport Léopold Sédar Senghor International Airport (GOOY)
Time Latitude Longitude Altitude Speed Heading
2026-04-21 07:15 16.73169 -22.94489 190 ft 0 kts 90°
2026-04-21 07:30 16.73169 -22.94498 190 ft 2 kts 90°
2026-04-21 07:30 16.73169 -22.94510 203 ft 2 kts 90°
2026-04-21 07:31 16.73170 -22.94525 196 ft 2 kts 107°
2026-04-21 07:31 16.73176 -22.94540 201 ft 2 kts 126°
2026-04-21 07:31 16.73186 -22.94552 203 ft 2 kts 145°
2026-04-21 07:31 16.73199 -22.94559 199 ft 2 kts 165°
2026-04-21 07:32 16.73213 -22.94562 197 ft 0 kts 182°
2026-04-21 07:33 16.73199 -22.94566 201 ft 8 kts 197°
2026-04-21 07:33 16.73141 -22.94584 190 ft 9 kts 197°
2026-04-21 07:33 16.73087 -22.94614 199 ft 10 kts 227°
2026-04-21 07:34 16.73043 -22.94678 190 ft 11 kts 223°
2026-04-21 07:34 16.72967 -22.94691 190 ft 12 kts 180°
2026-04-21 07:34 16.72870 -22.94691 204 ft 15 kts 180°
2026-04-21 07:34 16.72767 -22.94690 191 ft 14 kts 180°
2026-04-21 07:35 16.72668 -22.94690 191 ft 15 kts 180°
2026-04-21 07:35 16.72551 -22.94689 191 ft 19 kts 180°
2026-04-21 07:35 16.72468 -22.94689 204 ft 2 kts 179°
2026-04-21 07:35 16.72422 -22.94703 194 ft 15 kts 224°
2026-04-21 07:36 16.72407 -22.94814 191 ft 17 kts 269°
2026-04-21 07:36 16.72460 -22.94888 191 ft 14 kts 359°
2026-04-21 07:36 16.72613 -22.94889 190 ft 47 kts 360°
2026-04-21 07:36 16.73193 -22.94893 203 ft 117 kts 360°
2026-04-21 07:37 16.74204 -22.94898 300 ft 164 kts
2026-04-21 07:37 16.75313 -22.94915 1238 ft 153 kts 359°
2026-04-21 07:37 16.76412 -22.94935 2025 ft 160 kts 359°
2026-04-21 07:37 16.77637 -22.94956 2404 ft 192 kts 359°
2026-04-21 07:38 16.79055 -22.94981 2650 ft 218 kts 359°
2026-04-21 07:38 16.80656 -22.95009 2891 ft 244 kts 359°
2026-04-21 07:38 16.82386 -22.95030 3590 ft 254 kts
2026-04-21 07:38 16.84126 -22.94523 4269 ft 271 kts 27°
2026-04-21 07:39 16.85622 -22.93267 5010 ft 284 kts 45°
2026-04-21 07:39 16.86839 -22.91626 5853 ft 290 kts 63°
2026-04-21 07:39 16.87324 -22.89549 6505 ft 303 kts 87°
2026-04-21 07:39 16.87322 -22.87342 7327 ft 303 kts 93°
2026-04-21 07:40 16.87242 -22.85113 7784 ft 309 kts 93°
2026-04-21 07:40 16.87195 -22.82862 8091 ft 312 kts 92°
2026-04-21 07:40 16.87186 -22.80577 8764 ft 317 kts 91°
2026-04-21 07:40 16.87193 -22.78264 9598 ft 320 kts 91°
2026-04-21 07:41 16.86964 -22.75953 10275 ft 323 kts 110°
2026-04-21 07:41 16.85943 -22.73813 10527 ft 340 kts 128°
2026-04-21 07:41 16.84565 -22.71748 10978 ft 352 kts 130°
2026-04-21 07:41 16.83116 -22.69656 11651 ft 356 kts 130°
2026-04-21 07:42 16.81655 -22.67552 12385 ft 359 kts 130°
2026-04-21 07:42 16.80188 -22.65425 13120 ft 363 kts 129°
2026-04-21 07:42 16.78712 -22.63270 13805 ft 368 kts 129°
2026-04-21 07:42 16.77219 -22.61077 14415 ft 372 kts 129°
2026-04-21 07:43 16.75738 -22.58894 15045 ft 375 kts 129°
2026-04-21 07:43 16.74222 -22.56655 15672 ft 379 kts 129°
2026-04-21 07:43 16.72696 -22.54398 16283 ft 383 kts 128°
2026-04-21 07:43 16.71151 -22.52114 16904 ft 387 kts 128°
2026-04-21 07:44 16.69594 -22.49812 17495 ft 391 kts 128°
2026-04-21 07:44 16.68548 -22.48266 17896 ft 393 kts 128°
2026-04-21 07:44 16.66960 -22.45921 18446 ft 397 kts 128°
2026-04-21 07:44 16.65356 -22.43551 18915 ft 403 kts 128°
2026-04-21 07:45 16.63728 -22.41148 19357 ft 408 kts 128°
2026-04-21 07:45 16.62080 -22.38715 19812 ft 413 kts 127°
2026-04-21 07:45 16.60410 -22.36251 20273 ft 418 kts 127°
2026-04-21 07:45 16.58725 -22.33764 20710 ft 423 kts 127°
2026-04-21 07:46 16.57014 -22.31241 21147 ft 428 kts 127°
2026-04-21 07:46 16.55287 -22.28683 21573 ft 433 kts 125°
2026-04-21 07:46 16.53833 -22.25967 21982 ft 438 kts 116°
2026-04-21 07:46 16.52564 -22.23058 22407 ft 443 kts 114°
2026-04-21 07:47 16.51354 -22.20095 22807 ft 447 kts 113°
2026-04-21 07:47 16.50138 -22.17088 23211 ft 451 kts 113°
2026-04-21 07:47 16.48899 -22.14070 23590 ft 456 kts 113°
2026-04-21 07:47 16.47629 -22.11032 23919 ft 459 kts 114°
2026-04-21 07:48 16.46334 -22.07981 24281 ft 461 kts 114°
2026-04-21 07:48 16.45025 -22.04926 24637 ft 464 kts 114°
2026-04-21 07:48 16.43699 -22.01844 24964 ft 467 kts 114°
2026-04-21 07:48 16.42363 -21.98746 25294 ft 470 kts 114°
2026-04-21 07:49 16.41022 -21.95636 25637 ft 472 kts 114°
2026-04-21 07:49 16.39672 -21.92505 25959 ft 475 kts 114°
2026-04-21 07:49 16.38315 -21.89356 26282 ft 478 kts 114°
2026-04-21 07:49 16.36949 -21.86188 26600 ft 481 kts 114°
2026-04-21 07:50 16.35572 -21.82995 26920 ft 484 kts 114°
2026-04-21 07:50 16.34207 -21.79830 27225 ft 486 kts 114°
2026-04-21 07:50 16.32815 -21.76604 27524 ft 489 kts 114°
2026-04-21 07:50 16.31414 -21.73361 27830 ft 492 kts 114°
2026-04-21 07:51 16.30008 -21.70105 28130 ft 494 kts 114°
2026-04-21 07:51 16.28594 -21.66833 28426 ft 497 kts 114°
2026-04-21 07:51 16.27178 -21.63528 28715 ft 500 kts 113°
2026-04-21 07:51 16.25870 -21.60164 29000 ft 502 kts 111°
2026-04-21 07:52 16.24645 -21.56747 29270 ft 505 kts 110°
2026-04-21 07:52 16.23453 -21.53306 29545 ft 507 kts 109°
2026-04-21 07:52 16.22260 -21.49844 29810 ft 510 kts 109°
2026-04-21 07:52 16.21051 -21.46365 30069 ft 512 kts 110°
2026-04-21 07:53 16.19838 -21.42917 30288 ft 514 kts 110°
2026-04-21 07:53 16.18596 -21.39422 30531 ft 516 kts 110°
2026-04-21 07:53 16.17339 -21.35913 30768 ft 517 kts 111°
2026-04-21 07:53 16.16076 -21.32399 30989 ft 519 kts 111°
2026-04-21 07:54 16.14806 -21.28872 31202 ft 521 kts 111°
2026-04-21 07:54 16.13530 -21.25331 31422 ft 523 kts 111°
2026-04-21 07:54 16.12254 -21.21789 31631 ft 524 kts 111°
2026-04-21 07:54 16.10971 -21.18225 31847 ft 526 kts 111°
2026-04-21 07:55 16.09688 -21.14664 32063 ft 527 kts 111°
2026-04-21 07:55 16.08400 -21.11091 32327 ft 527 kts 111°
2026-04-21 07:55 16.07117 -21.07531 32645 ft 526 kts 112°
2026-04-21 07:55 16.05831 -21.03965 32962 ft 525 kts 112°
2026-04-21 07:56 16.04568 -21.00462 33250 ft 524 kts 112°
2026-04-21 07:56 16.03285 -20.96912 33533 ft 524 kts 112°
2026-04-21 07:56 16.02006 -20.93372 33821 ft 523 kts 112°
2026-04-21 07:56 16.00725 -20.89829 34097 ft 523 kts 112°
2026-04-21 07:57 15.99447 -20.86296 34360 ft 522 kts 113°
2026-04-21 07:57 15.98172 -20.82773 34642 ft 520 kts 113°
2026-04-21 07:57 15.96900 -20.79261 34918 ft 518 kts 113°
2026-04-21 07:57 15.95629 -20.75754 35187 ft 517 kts 113°
2026-04-21 07:58 15.94360 -20.72255 35430 ft 517 kts 114°
2026-04-21 07:58 15.93094 -20.68765 35678 ft 516 kts 114°
2026-04-21 07:58 15.91827 -20.65275 35929 ft 515 kts 114°
2026-04-21 07:58 15.90564 -20.61797 36190 ft 513 kts 114°
2026-04-21 07:59 15.89303 -20.58329 36439 ft 512 kts 114°
2026-04-21 07:59 15.88046 -20.54871 36674 ft 511 kts 114°
2026-04-21 07:59 15.86806 -20.51464 36896 ft 511 kts 114°
2026-04-21 07:59 15.85550 -20.48014 37136 ft 509 kts 115°
2026-04-21 08:00 15.84298 -20.44575 37393 ft 508 kts 115°
2026-04-21 08:00 15.83050 -20.41151 37633 ft 506 kts 115°
2026-04-21 08:00 15.81804 -20.37735 37851 ft 505 kts 115°
2026-04-21 08:00 15.80559 -20.34324 38056 ft 505 kts 115°
2026-04-21 08:01 15.79314 -20.30911 38259 ft 504 kts 115°
2026-04-21 08:01 15.78073 -20.27514 38482 ft 502 kts 115°
2026-04-21 08:01 15.76836 -20.24128 38696 ft 501 kts 115°
2026-04-21 08:02 15.74364 -20.17369 38952 ft 500 kts 115°
2026-04-21 08:02 15.71900 -20.10643 38959 ft 502 kts 115°
2026-04-21 08:03 15.69420 -20.03872 38954 ft 500 kts 115°
2026-04-21 08:03 15.66951 -19.97130 38954 ft 498 kts 115°
2026-04-21 08:04 15.64511 -19.90416 38953 ft 497 kts 115°
2026-04-21 08:04 15.62080 -19.83716 38951 ft 495 kts 115°
2026-04-21 08:04 15.60860 -19.80361 38740 ft 501 kts 115°
2026-04-21 08:05 15.59614 -19.76946 38197 ft 507 kts 115°
2026-04-21 08:05 15.58370 -19.73532 37605 ft 506 kts 115°
2026-04-21 08:05 15.57129 -19.70123 37061 ft 505 kts 115°
2026-04-21 08:05 15.55906 -19.66765 36608 ft 502 kts 114°
2026-04-21 08:06 15.54661 -19.63346 36183 ft 498 kts 114°
2026-04-21 08:06 15.53442 -19.60002 35805 ft 494 kts 114°
2026-04-21 08:06 15.52243 -19.56714 35407 ft 492 kts 114°
2026-04-21 08:06 15.51035 -19.53408 35007 ft 489 kts 114°
2026-04-21 08:07 15.49832 -19.50119 34596 ft 487 kts 113°
2026-04-21 08:07 15.48631 -19.46836 34182 ft 486 kts 113°
2026-04-21 08:07 15.47435 -19.43570 33741 ft 484 kts 112°
2026-04-21 08:07 15.46241 -19.40309 33309 ft 482 kts 112°
2026-04-21 08:08 15.45053 -19.37068 32899 ft 480 kts 112°
2026-04-21 08:08 15.43873 -19.33847 32497 ft 477 kts 112°
2026-04-21 08:08 15.42696 -19.30637 32095 ft 475 kts 111°
2026-04-21 08:08 15.41524 -19.27442 31709 ft 473 kts 111°
2026-04-21 08:09 15.40356 -19.24263 31320 ft 470 kts 111°
2026-04-21 08:09 15.39194 -19.21097 30924 ft 469 kts 110°
2026-04-21 08:09 15.38035 -19.17945 30528 ft 467 kts 110°
2026-04-21 08:09 15.36882 -19.14808 30135 ft 466 kts 110°
2026-04-21 08:10 15.35744 -19.11713 29700 ft 464 kts 110°
2026-04-21 08:10 15.34597 -19.08594 29286 ft 461 kts 110°
2026-04-21 08:10 15.33458 -19.05499 28868 ft 458 kts 110°
2026-04-21 08:10 15.32322 -19.02415 28463 ft 455 kts 110°
2026-04-21 08:11 15.31197 -18.99363 28061 ft 452 kts 110°
2026-04-21 08:11 15.30077 -18.96325 27673 ft 449 kts 110°
2026-04-21 08:11 15.28968 -18.93317 27282 ft 446 kts 110°
2026-04-21 08:11 15.27864 -18.90324 26889 ft 443 kts 110°
2026-04-21 08:12 15.26765 -18.87347 26509 ft 441 kts 110°
2026-04-21 08:12 15.25686 -18.84427 26129 ft 438 kts 110°
2026-04-21 08:12 15.24601 -18.81490 25744 ft 436 kts 110°
2026-04-21 08:12 15.23517 -18.78555 25353 ft 434 kts 110°
2026-04-21 08:13 15.22439 -18.75639 24972 ft 432 kts 110°
2026-04-21 08:13 15.21362 -18.72730 24571 ft 431 kts 110°
2026-04-21 08:13 15.20292 -18.69838 24186 ft 429 kts 110°
2026-04-21 08:13 15.19227 -18.66963 23799 ft 427 kts 110°
2026-04-21 08:14 15.18165 -18.64097 23384 ft 425 kts 111°
2026-04-21 08:14 15.17126 -18.61293 22962 ft 419 kts 111°
2026-04-21 08:14 15.16090 -18.58499 22550 ft 412 kts 111°
2026-04-21 08:14 15.15073 -18.55756 22171 ft 404 kts 111°
2026-04-21 08:15 15.14074 -18.53062 21798 ft 398 kts 111°
2026-04-21 08:15 15.13090 -18.50411 21438 ft 391 kts 112°
2026-04-21 08:15 15.12123 -18.47807 21081 ft 384 kts 112°
2026-04-21 08:15 15.11171 -18.45244 20731 ft 378 kts 112°
2026-04-21 08:16 15.10230 -18.42713 20388 ft 376 kts 112°
2026-04-21 08:16 15.09292 -18.40190 20045 ft 374 kts 112°
2026-04-21 08:16 15.08371 -18.37716 19704 ft 372 kts 112°
2026-04-21 08:16 15.07442 -18.35219 19364 ft 371 kts 113°
2026-04-21 08:17 15.06517 -18.32735 19001 ft 370 kts 113°
2026-04-21 08:17 15.05593 -18.30255 18658 ft 368 kts 113°
2026-04-21 08:17 15.04673 -18.27785 18296 ft 367 kts 113°
2026-04-21 08:17 15.03755 -18.25322 17916 ft 366 kts 114°
2026-04-21 08:18 15.02843 -18.22874 17537 ft 364 kts 114°
2026-04-21 08:18 15.01937 -18.20446 17177 ft 361 kts 113°
2026-04-21 08:18 15.01035 -18.18029 16818 ft 359 kts 113°
2026-04-21 08:18 15.00150 -18.15658 16470 ft 356 kts 114°
2026-04-21 08:19 14.99261 -18.13275 16121 ft 353 kts 113°
2026-04-21 08:19 14.98377 -18.10909 15787 ft 351 kts 113°
2026-04-21 08:19 14.97500 -18.08559 15437 ft 349 kts 114°
2026-04-21 08:19 14.96628 -18.06227 15089 ft 347 kts 113°
2026-04-21 08:20 14.95759 -18.03903 14750 ft 345 kts 114°
2026-04-21 08:20 14.94897 -18.01598 14408 ft 343 kts 114°
2026-04-21 08:20 14.94001 -17.99328 14107 ft 335 kts 122°
2026-04-21 08:20 14.92625 -17.97492 13905 ft 316 kts 137°
2026-04-21 08:21 14.91090 -17.95886 13407 ft 313 kts 138°
2026-04-21 08:21 14.89546 -17.94303 12855 ft 311 kts 138°
2026-04-21 08:21 14.88029 -17.92719 12370 ft 308 kts 137°
2026-04-21 08:21 14.86548 -17.91137 11903 ft 304 kts 137°
2026-04-21 08:22 14.85096 -17.89557 11420 ft 302 kts 136°
2026-04-21 08:22 14.83668 -17.87984 10961 ft 298 kts 135°
2026-04-21 08:22 14.82268 -17.86430 10619 ft 291 kts 135°
2026-04-21 08:22 14.80913 -17.84918 10292 ft 284 kts 135°
2026-04-21 08:23 14.79602 -17.83451 9950 ft 278 kts 135°
2026-04-21 08:23 14.78290 -17.81983 9467 ft 278 kts 134°
2026-04-21 08:23 14.76986 -17.80520 8987 ft 276 kts 134°
2026-04-21 08:23 14.75692 -17.79068 8620 ft 271 kts 134°
2026-04-21 08:24 14.74431 -17.77652 8314 ft 264 kts 134°
2026-04-21 08:24 14.73188 -17.76257 8048 ft 263 kts 134°
2026-04-21 08:24 14.71949 -17.74866 7771 ft 262 kts 134°
2026-04-21 08:24 14.70714 -17.73481 7494 ft 262 kts 134°
2026-04-21 08:25 14.69485 -17.72100 7228 ft 261 kts 134°
2026-04-21 08:25 14.68254 -17.70719 6960 ft 261 kts 134°
2026-04-21 08:25 14.67025 -17.69340 6682 ft 261 kts 134°
2026-04-21 08:25 14.65794 -17.67959 6393 ft 261 kts 134°
2026-04-21 08:26 14.64562 -17.66577 6102 ft 262 kts 134°
2026-04-21 08:26 14.63329 -17.65194 5817 ft 261 kts 134°
2026-04-21 08:26 14.62100 -17.63815 5539 ft 261 kts 133°
2026-04-21 08:26 14.60887 -17.62455 5264 ft 261 kts 133°
2026-04-21 08:27 14.59659 -17.61078 4993 ft 260 kts 133°
2026-04-21 08:27 14.58435 -17.59705 4725 ft 260 kts 133°
2026-04-21 08:27 14.57208 -17.58330 4449 ft 260 kts 133°
2026-04-21 08:27 14.55991 -17.56967 4263 ft 255 kts 133°
2026-04-21 08:28 14.54810 -17.55645 4174 ft 244 kts 133°
2026-04-21 08:28 14.53734 -17.54354 4045 ft 231 kts 120°
2026-04-21 08:28 14.53289 -17.52835 3955 ft 214 kts 92°
2026-04-21 08:28 14.53373 -17.51361 3876 ft 201 kts 81°
2026-04-21 08:29 14.53561 -17.49938 3807 ft 199 kts 80°
2026-04-21 08:29 14.53752 -17.48520 3705 ft 200 kts 81°
2026-04-21 08:29 14.53962 -17.47104 3573 ft 202 kts 72°
2026-04-21 08:29 14.54711 -17.45918 3365 ft 198 kts 34°
2026-04-21 08:30 14.55973 -17.45494 3158 ft 191 kts 358°
2026-04-21 08:30 14.57283 -17.45610 2971 ft 188 kts 352°
2026-04-21 08:30 14.58580 -17.45789 2757 ft 186 kts 351°
2026-04-21 08:30 14.59848 -17.45967 2525 ft 180 kts 352°
2026-04-21 08:31 14.61049 -17.46132 2322 ft 167 kts 352°
2026-04-21 08:31 14.62129 -17.46283 2193 ft 149 kts 352°
2026-04-21 08:31 14.63130 -17.46419 1982 ft 142 kts 352°
2026-04-21 08:31 14.64102 -17.46551 1799 ft 140 kts 353°
2026-04-21 08:32 14.65051 -17.46678 1614 ft 137 kts 354°
2026-04-21 08:32 14.66007 -17.46806 1436 ft 140 kts 353°
2026-04-21 08:32 14.66990 -17.46937 1246 ft 143 kts 352°
2026-04-21 08:32 14.67978 -17.47070 1058 ft 142 kts 352°
2026-04-21 08:33 14.68943 -17.47200 883 ft 137 kts 353°
2026-04-21 08:33 14.69564 -17.47282 755 ft 134 kts 352°
2026-04-21 08:33 14.70526 -17.47407 593 ft 145 kts 350°
2026-04-21 08:33 14.71548 -17.47548 385 ft 148 kts 348°
2026-04-21 08:34 14.72553 -17.47685 170 ft 143 kts 348°
2026-04-21 08:34 14.73500 -17.47808 88 ft 125 kts 349°
2026-04-21 08:34 14.74140 -17.47900 81 ft 61 kts 353°
2026-04-21 08:34 14.74341 -17.47926 81 ft 15 kts 352°
2026-04-21 08:35 14.74367 -17.48014 81 ft 15 kts 259°
2026-04-21 08:35 14.74353 -17.48091 83 ft 8 kts 259°
2026-04-21 08:35 14.74341 -17.48149 80 ft 8 kts 259°
2026-04-21 08:35 14.74331 -17.48210 80 ft 10 kts 259°
2026-04-21 08:36 14.74313 -17.48299 81 ft 15 kts 258°
2026-04-21 08:36 14.74293 -17.48403 83 ft 14 kts 258°
2026-04-21 08:36 14.74274 -17.48502 82 ft 14 kts 259°
2026-04-21 08:36 14.74273 -17.48599 76 ft 13 kts 285°
2026-04-21 08:37 14.74299 -17.48687 73 ft 13 kts 287°
2026-04-21 08:37 14.74325 -17.48775 71 ft 12 kts 287°
2026-04-21 08:37 14.74349 -17.48859 75 ft 12 kts 287°
2026-04-21 08:37 14.74389 -17.48930 67 ft 11 kts 297°
2026-04-21 08:38 14.74422 -17.49001 72 ft 11 kts 328°
2026-04-21 08:38 14.74469 -17.48997 73 ft 0 kts 15°